GFSCGP_prec_pwat_024.txt.gz
Precipitable_Water
0.26 0.16 0.13 0.17 0.19 0.19 0.17 0.16 0.16 0.20 0.26 0.25 0.23 0.20 0.17 0.23 0.26 0.28 0.32 0.34 0.35 0.36 0.40 0.41 0.43 0.43 0.43 0.47 0.50 0.53 0.55 0.61 0.83 1.04 0.97 0.92 0.79 0.72 0.67 0.64 0.58 0.51 0.47 0.42
0.22 0.20 0.28 0.29 0.26 0.24 0.22 0.20 0.18 0.21 0.25 0.23 0.18 0.18 0.24 0.25 0.31 0.33 0.33 0.33 0.34 0.34 0.35 0.37 0.40 0.42 0.42 0.44 0.49 0.53 0.57 0.60 0.63 0.87 1.04 1.00 0.89 0.80 0.74 0.69 0.65 0.57 0.51 0.48
0.24 0.28 0.32 0.27 0.24 0.21 0.21 0.20 0.21 0.20 0.22 0.20 0.23 0.17 0.24 0.31 0.34 0.35 0.34 0.32 0.32 0.31 0.31 0.33 0.35 0.38 0.41 0.43 0.48 0.51 0.55 0.59 0.61 0.64 0.89 0.98 0.94 0.87 0.76 0.69 0.64 0.62 0.58 0.54
0.24 0.29 0.25 0.24 0.21 0.23 0.17 0.25 0.23 0.20 0.18 0.13 0.21 0.13 0.20 0.30 0.32 0.33 0.34 0.35 0.34 0.32 0.32 0.34 0.35 0.36 0.38 0.40 0.46 0.48 0.48 0.50 0.56 0.63 0.66 0.87 0.88 0.76 0.78 0.74 0.71 0.68 0.66 0.60
0.19 0.23 0.23 0.20 0.21 0.25 0.19 0.25 0.23 0.22 0.20 0.22 0.22 0.23 0.25 0.32 0.31 0.34 0.38 0.37 0.33 0.32 0.35 0.36 0.38 0.39 0.41 0.42 0.45 0.46 0.47 0.50 0.52 0.51 0.60 0.66 0.71 0.93 0.84 0.79 0.73 0.72 0.70 0.67
0.25 0.32 0.29 0.27 0.30 0.31 0.31 0.28 0.21 0.18 0.20 0.18 0.26 0.26 0.25 0.30 0.33 0.32 0.30 0.28 0.25 0.26 0.31 0.35 0.38 0.41 0.41 0.44 0.47 0.47 0.48 0.50 0.54 0.54 0.53 0.52 0.63 0.72 0.91 0.84 0.77 0.72 0.70 0.69
0.25 0.28 0.34 0.36 0.26 0.33 0.33 0.21 0.12 0.13 0.18 0.16 0.25 0.23 0.27 0.33 0.32 0.27 0.25 0.24 0.25 0.25 0.29 0.32 0.34 0.37 0.39 0.41 0.44 0.47 0.50 0.51 0.55 0.57 0.59 0.54 0.53 0.65 0.76 0.86 0.81 0.74 0.68 0.66
0.21 0.20 0.29 0.32 0.26 0.23 0.19 0.22 0.17 0.11 0.12 0.15 0.21 0.16 0.24 0.30 0.27 0.27 0.27 0.27 0.26 0.26 0.29 0.33 0.35 0.34 0.35 0.38 0.41 0.47 0.50 0.50 0.54 0.59 0.64 0.63 0.54 0.55 0.68 0.82 0.86 0.79 0.73 0.68
0.17 0.21 0.30 0.26 0.28 0.24 0.22 0.18 0.23 0.20 0.21 0.16 0.15 0.17 0.29 0.25 0.24 0.26 0.26 0.26 0.25 0.25 0.30 0.33 0.34 0.32 0.33 0.35 0.37 0.39 0.43 0.45 0.47 0.51 0.62 0.66 0.64 0.56 0.59 0.72 0.85 0.84 0.80 0.74
0.22 0.13 0.16 0.23 0.25 0.23 0.22 0.26 0.15 0.16 0.10 0.09 0.10 0.10 0.12 0.17 0.19 0.22 0.22 0.22 0.21 0.21 0.24 0.26 0.24 0.23 0.27 0.32 0.37 0.47 0.48 0.41 0.37 0.40 0.58 0.63 0.69 0.66 0.61 0.65 0.77 0.82 0.82 0.79
0.20 0.15 0.15 0.17 0.14 0.14 0.15 0.15 0.15 0.15 0.14 0.11 0.10 0.11 0.20 0.19 0.21 0.20 0.20 0.19 0.19 0.24 0.29 0.29 0.28 0.29 0.29 0.32 0.38 0.42 0.41 0.40 0.40 0.42 0.50 0.59 0.64 0.72 0.66 0.64 0.71 0.80 0.81 0.77
0.19 0.15 0.11 0.12 0.17 0.20 0.19 0.15 0.15 0.14 0.14 0.18 0.18 0.12 0.20 0.21 0.22 0.22 0.22 0.21 0.23 0.28 0.31 0.30 0.30 0.29 0.29 0.35 0.37 0.38 0.39 0.41 0.43 0.49 0.52 0.51 0.62 0.73 0.73 0.67 0.68 0.74 0.77 0.77
0.20 0.14 0.10 0.13 0.20 0.24 0.21 0.24 0.25 0.21 0.21 0.17 0.16 0.15 0.22 0.24 0.22 0.22 0.22 0.22 0.27 0.30 0.30 0.27 0.29 0.30 0.33 0.32 0.32 0.34 0.37 0.44 0.51 0.52 0.51 0.54 0.59 0.75 0.76 0.72 0.72 0.73 0.74 0.77
0.24 0.16 0.13 0.11 0.13 0.18 0.17 0.19 0.20 0.19 0.16 0.16 0.17 0.18 0.20 0.21 0.21 0.22 0.21 0.24 0.28 0.31 0.30 0.27 0.30 0.33 0.34 0.34 0.33 0.38 0.40 0.44 0.48 0.50 0.51 0.58 0.63 0.67 0.76 0.77 0.73 0.76 0.76 0.78
0.26 0.18 0.20 0.20 0.20 0.19 0.18 0.18 0.19 0.19 0.20 0.18 0.17 0.19 0.22 0.21 0.19 0.20 0.23 0.29 0.31 0.30 0.29 0.31 0.34 0.36 0.37 0.36 0.37 0.39 0.41 0.43 0.45 0.43 0.47 0.54 0.63 0.66 0.71 0.77 0.78 0.78 0.76 0.77
0.28 0.19 0.21 0.18 0.21 0.22 0.19 0.20 0.21 0.21 0.21 0.21 0.18 0.16 0.20 0.23 0.22 0.23 0.29 0.32 0.31 0.30 0.35 0.38 0.37 0.35 0.32 0.34 0.38 0.37 0.37 0.41 0.42 0.42 0.40 0.48 0.63 0.68 0.66 0.77 0.80 0.79 0.77 0.76
0.25 0.22 0.20 0.16 0.20 0.21 0.17 0.20 0.19 0.19 0.21 0.20 0.15 0.19 0.22 0.24 0.28 0.30 0.32 0.35 0.34 0.35 0.40 0.37 0.33 0.34 0.34 0.32 0.34 0.35 0.37 0.40 0.42 0.39 0.38 0.42 0.59 0.65 0.62 0.70 0.77 0.82 0.81 0.76
0.23 0.22 0.22 0.18 0.20 0.13 0.20 0.23 0.23 0.20 0.20 0.20 0.20 0.22 0.29 0.32 0.35 0.34 0.33 0.35 0.36 0.40 0.39 0.36 0.35 0.34 0.32 0.33 0.35 0.36 0.38 0.39 0.42 0.41 0.39 0.45 0.57 0.60 0.59 0.67 0.73 0.78 0.84 0.77
0.27 0.24 0.21 0.18 0.17 0.18 0.19 0.22 0.21 0.18 0.16 0.22 0.24 0.28 0.31 0.33 0.33 0.27 0.32 0.39 0.41 0.41 0.41 0.40 0.35 0.32 0.32 0.32 0.35 0.36 0.36 0.38 0.38 0.37 0.40 0.52 0.52 0.51 0.53 0.65 0.68 0.74 0.82 0.81
0.26 0.28 0.23 0.19 0.16 0.13 0.17 0.22 0.27 0.25 0.14 0.25 0.28 0.26 0.27 0.31 0.25 0.27 0.34 0.37 0.39 0.42 0.42 0.38 0.37 0.35 0.33 0.33 0.36 0.34 0.35 0.35 0.35 0.36 0.46 0.48 0.47 0.46 0.51 0.63 0.61 0.70 0.80 0.84
0.20 0.21 0.19 0.19 0.18 0.20 0.23 0.25 0.24 0.14 0.15 0.24 0.23 0.29 0.33 0.33 0.35 0.38 0.39 0.39 0.41 0.42 0.38 0.38 0.38 0.38 0.36 0.37 0.37 0.33 0.32 0.35 0.37 0.39 0.45 0.46 0.48 0.47 0.54 0.58 0.58 0.64 0.76 0.85
0.20 0.18 0.17 0.18 0.17 0.14 0.23 0.19 0.17 0.21 0.25 0.27 0.33 0.37 0.37 0.38 0.36 0.37 0.39 0.41 0.41 0.39 0.38 0.39 0.39 0.37 0.36 0.39 0.38 0.34 0.32 0.35 0.37 0.38 0.42 0.44 0.46 0.48 0.56 0.51 0.56 0.62 0.73 0.81
0.20 0.20 0.17 0.18 0.16 0.19 0.23 0.23 0.26 0.28 0.32 0.35 0.38 0.35 0.34 0.35 0.37 0.39 0.39 0.40 0.39 0.38 0.37 0.39 0.39 0.37 0.34 0.40 0.41 0.37 0.35 0.36 0.36 0.36 0.38 0.43 0.47 0.52 0.55 0.48 0.57 0.58 0.72 0.78
0.23 0.23 0.19 0.19 0.18 0.21 0.24 0.27 0.32 0.32 0.33 0.35 0.35 0.37 0.39 0.40 0.39 0.37 0.39 0.38 0.38 0.38 0.39 0.40 0.37 0.34 0.34 0.39 0.41 0.41 0.40 0.38 0.36 0.34 0.37 0.43 0.48 0.53 0.51 0.56 0.62 0.65 0.74 0.77
0.24 0.24 0.19 0.19 0.22 0.26 0.27 0.26 0.33 0.35 0.34 0.35 0.38 0.39 0.38 0.38 0.36 0.36 0.34 0.34 0.34 0.35 0.36 0.36 0.36 0.37 0.35 0.38 0.38 0.40 0.40 0.38 0.35 0.35 0.39 0.45 0.49 0.50 0.53 0.59 0.67 0.70 0.81 0.82
0.26 0.22 0.20 0.19 0.24 0.23 0.24 0.30 0.32 0.30 0.32 0.35 0.35 0.33 0.34 0.34 0.32 0.33 0.34 0.37 0.37 0.37 0.39 0.38 0.36 0.36 0.37 0.36 0.36 0.35 0.37 0.37 0.38 0.37 0.45 0.47 0.50 0.50 0.53 0.60 0.65 0.80 0.84 0.85

GFSCGP_prec_pwat_030.txt.gz
Precipitable_Water
0.27 0.17 0.14 0.20 0.23 0.24 0.23 0.20 0.18 0.20 0.24 0.21 0.21 0.21 0.22 0.26 0.28 0.28 0.29 0.30 0.31 0.32 0.36 0.39 0.41 0.42 0.43 0.45 0.48 0.48 0.50 0.54 0.60 0.63 0.67 0.70 0.83 1.05 1.10 1.08 1.04 0.97 1.07 0.93
0.23 0.20 0.28 0.29 0.28 0.25 0.22 0.18 0.16 0.19 0.23 0.21 0.19 0.19 0.24 0.26 0.26 0.27 0.28 0.29 0.30 0.31 0.34 0.38 0.40 0.41 0.41 0.41 0.44 0.47 0.49 0.51 0.54 0.59 0.64 0.69 0.75 0.86 0.91 1.01 1.06 0.98 0.90 0.97
0.22 0.24 0.28 0.25 0.23 0.20 0.19 0.16 0.18 0.17 0.21 0.22 0.21 0.20 0.23 0.26 0.25 0.26 0.29 0.31 0.32 0.33 0.34 0.36 0.37 0.39 0.41 0.40 0.42 0.42 0.45 0.48 0.52 0.53 0.55 0.57 0.62 0.69 0.76 0.80 0.87 0.96 0.99 0.85
0.22 0.27 0.25 0.24 0.21 0.23 0.17 0.25 0.23 0.21 0.20 0.13 0.24 0.12 0.24 0.23 0.23 0.25 0.26 0.27 0.30 0.32 0.35 0.35 0.35 0.36 0.39 0.39 0.39 0.42 0.42 0.45 0.52 0.51 0.50 0.49 0.49 0.52 0.59 0.63 0.73 0.78 0.88 0.94
0.19 0.22 0.22 0.21 0.24 0.29 0.23 0.29 0.24 0.21 0.19 0.19 0.19 0.18 0.23 0.23 0.22 0.24 0.26 0.27 0.28 0.33 0.35 0.36 0.37 0.38 0.41 0.41 0.40 0.41 0.41 0.45 0.51 0.52 0.48 0.46 0.44 0.46 0.53 0.56 0.56 0.60 0.70 0.79
0.27 0.34 0.31 0.29 0.32 0.32 0.28 0.23 0.17 0.20 0.19 0.12 0.16 0.18 0.19 0.22 0.22 0.23 0.26 0.28 0.29 0.30 0.35 0.37 0.38 0.40 0.41 0.41 0.40 0.39 0.40 0.43 0.46 0.46 0.45 0.44 0.43 0.42 0.43 0.44 0.45 0.50 0.54 0.60
0.22 0.28 0.32 0.31 0.26 0.28 0.22 0.17 0.09 0.10 0.11 0.10 0.20 0.19 0.20 0.24 0.26 0.26 0.27 0.28 0.28 0.29 0.33 0.34 0.35 0.37 0.38 0.36 0.36 0.36 0.36 0.35 0.39 0.40 0.41 0.42 0.43 0.44 0.45 0.43 0.44 0.44 0.45 0.48
0.15 0.14 0.23 0.25 0.23 0.18 0.18 0.18 0.11 0.07 0.08 0.11 0.18 0.13 0.16 0.22 0.25 0.27 0.28 0.27 0.28 0.27 0.31 0.32 0.33 0.33 0.32 0.32 0.32 0.33 0.30 0.29 0.30 0.31 0.29 0.28 0.33 0.36 0.42 0.44 0.42 0.43 0.44 0.48
0.13 0.13 0.22 0.25 0.24 0.20 0.16 0.14 0.20 0.15 0.17 0.13 0.14 0.16 0.19 0.22 0.23 0.25 0.26 0.27 0.27 0.28 0.31 0.33 0.33 0.33 0.32 0.31 0.31 0.31 0.30 0.29 0.29 0.29 0.29 0.27 0.31 0.37 0.39 0.41 0.41 0.41 0.44 0.49
0.15 0.10 0.14 0.18 0.21 0.21 0.19 0.22 0.15 0.16 0.10 0.09 0.11 0.13 0.14 0.18 0.21 0.25 0.26 0.27 0.28 0.28 0.30 0.30 0.31 0.30 0.29 0.28 0.30 0.30 0.31 0.31 0.32 0.32 0.31 0.28 0.28 0.31 0.31 0.33 0.37 0.44 0.47 0.48
0.16 0.13 0.12 0.16 0.16 0.15 0.16 0.16 0.20 0.19 0.16 0.11 0.09 0.10 0.18 0.20 0.23 0.23 0.23 0.25 0.24 0.22 0.26 0.27 0.27 0.29 0.31 0.33 0.35 0.36 0.34 0.32 0.29 0.32 0.33 0.32 0.29 0.29 0.34 0.34 0.36 0.48 0.50 0.47
0.18 0.16 0.12 0.14 0.19 0.22 0.21 0.18 0.18 0.13 0.12 0.16 0.15 0.12 0.20 0.21 0.22 0.23 0.22 0.22 0.22 0.25 0.29 0.32 0.33 0.34 0.34 0.34 0.36 0.36 0.36 0.35 0.35 0.38 0.36 0.32 0.30 0.32 0.34 0.33 0.37 0.45 0.49 0.50
0.19 0.15 0.12 0.14 0.21 0.24 0.21 0.22 0.22 0.21 0.20 0.15 0.14 0.12 0.20 0.20 0.19 0.21 0.21 0.23 0.27 0.29 0.30 0.32 0.32 0.32 0.33 0.34 0.35 0.35 0.35 0.35 0.36 0.35 0.31 0.31 0.31 0.30 0.31 0.36 0.40 0.41 0.45 0.47
0.25 0.19 0.14 0.12 0.14 0.17 0.15 0.17 0.19 0.18 0.15 0.14 0.14 0.13 0.14 0.18 0.20 0.21 0.24 0.28 0.27 0.27 0.28 0.29 0.30 0.30 0.34 0.36 0.35 0.36 0.37 0.38 0.33 0.31 0.31 0.31 0.30 0.31 0.33 0.38 0.41 0.42 0.42 0.46
0.26 0.18 0.19 0.19 0.20 0.20 0.18 0.18 0.19 0.18 0.18 0.16 0.13 0.16 0.17 0.20 0.21 0.23 0.26 0.25 0.23 0.24 0.26 0.28 0.29 0.32 0.34 0.34 0.34 0.35 0.36 0.36 0.35 0.34 0.33 0.33 0.34 0.32 0.35 0.38 0.40 0.40 0.48 0.55
0.29 0.19 0.21 0.18 0.20 0.21 0.19 0.20 0.20 0.20 0.20 0.19 0.19 0.16 0.22 0.23 0.25 0.24 0.24 0.24 0.23 0.23 0.26 0.30 0.33 0.34 0.33 0.35 0.37 0.38 0.36 0.38 0.38 0.34 0.33 0.35 0.35 0.34 0.33 0.31 0.35 0.47 0.49 0.51
0.24 0.21 0.19 0.15 0.21 0.20 0.16 0.18 0.19 0.20 0.21 0.19 0.16 0.18 0.21 0.21 0.22 0.22 0.23 0.23 0.24 0.28 0.32 0.33 0.35 0.35 0.34 0.37 0.40 0.41 0.41 0.42 0.40 0.37 0.35 0.36 0.35 0.37 0.34 0.34 0.41 0.40 0.42 0.44
0.23 0.23 0.22 0.17 0.20 0.13 0.18 0.24 0.22 0.20 0.21 0.21 0.20 0.20 0.22 0.23 0.23 0.24 0.27 0.27 0.29 0.33 0.33 0.33 0.36 0.38 0.41 0.45 0.45 0.45 0.44 0.43 0.38 0.35 0.36 0.38 0.37 0.35 0.38 0.34 0.31 0.37 0.41 0.40
0.29 0.25 0.20 0.17 0.18 0.18 0.19 0.20 0.19 0.18 0.16 0.21 0.21 0.23 0.23 0.24 0.27 0.23 0.28 0.32 0.32 0.34 0.37 0.40 0.40 0.42 0.42 0.43 0.44 0.43 0.41 0.40 0.39 0.37 0.38 0.39 0.39 0.38 0.38 0.35 0.32 0.36 0.38 0.38
0.30 0.30 0.24 0.22 0.18 0.14 0.18 0.24 0.27 0.25 0.14 0.22 0.23 0.22 0.24 0.26 0.18 0.19 0.26 0.28 0.31 0.33 0.36 0.38 0.39 0.41 0.41 0.42 0.44 0.43 0.41 0.41 0.40 0.39 0.40 0.40 0.40 0.41 0.39 0.37 0.34 0.35 0.36 0.38
0.25 0.26 0.23 0.23 0.21 0.21 0.26 0.27 0.29 0.16 0.15 0.23 0.25 0.26 0.25 0.22 0.24 0.26 0.29 0.29 0.31 0.31 0.32 0.34 0.35 0.35 0.36 0.38 0.40 0.39 0.40 0.40 0.41 0.46 0.44 0.42 0.42 0.42 0.41 0.38 0.35 0.32 0.33 0.40
0.23 0.22 0.22 0.24 0.22 0.18 0.29 0.27 0.21 0.22 0.25 0.27 0.27 0.28 0.25 0.24 0.24 0.26 0.27 0.27 0.29 0.31 0.33 0.36 0.37 0.37 0.40 0.42 0.42 0.40 0.39 0.42 0.44 0.43 0.42 0.43 0.41 0.39 0.38 0.34 0.30 0.31 0.35 0.44
0.24 0.26 0.23 0.24 0.23 0.29 0.30 0.27 0.29 0.30 0.27 0.28 0.27 0.28 0.27 0.24 0.23 0.25 0.26 0.28 0.31 0.35 0.37 0.40 0.39 0.39 0.40 0.43 0.44 0.41 0.45 0.46 0.45 0.44 0.40 0.37 0.40 0.37 0.35 0.32 0.31 0.33 0.40 0.46
0.31 0.33 0.28 0.26 0.29 0.30 0.30 0.30 0.31 0.32 0.30 0.30 0.32 0.29 0.25 0.23 0.25 0.27 0.29 0.31 0.34 0.36 0.37 0.39 0.39 0.41 0.43 0.47 0.47 0.49 0.49 0.49 0.46 0.42 0.39 0.39 0.36 0.36 0.35 0.36 0.36 0.37 0.43 0.45
0.32 0.31 0.30 0.28 0.31 0.30 0.29 0.30 0.31 0.31 0.32 0.32 0.31 0.28 0.25 0.26 0.27 0.29 0.29 0.33 0.36 0.37 0.38 0.40 0.41 0.44 0.45 0.46 0.46 0.48 0.48 0.47 0.44 0.41 0.39 0.38 0.36 0.33 0.33 0.34 0.35 0.43 0.50 0.51
0.34 0.31 0.30 0.27 0.30 0.27 0.27 0.30 0.34 0.30 0.31 0.32 0.26 0.24 0.27 0.28 0.28 0.29 0.32 0.37 0.38 0.39 0.41 0.41 0.43 0.44 0.44 0.43 0.43 0.44 0.45 0.43 0.40 0.39 0.37 0.35 0.34 0.34 0.34 0.34 0.40 0.51 0.51 0.58

GFSCGP_prec_pwat_033.txt.gz
Precipitable_Water
0.27 0.19 0.13 0.19 0.24 0.25 0.23 0.20 0.17 0.19 0.24 0.22 0.20 0.19 0.21 0.24 0.25 0.25 0.26 0.27 0.29 0.31 0.34 0.36 0.37 0.38 0.38 0.40 0.42 0.43 0.45 0.50 0.52 0.55 0.58 0.63 0.65 0.80 0.88 0.96 1.05 1.09 1.07 1.06
0.19 0.17 0.27 0.29 0.27 0.24 0.21 0.17 0.15 0.19 0.25 0.22 0.20 0.18 0.22 0.24 0.25 0.26 0.27 0.28 0.30 0.31 0.32 0.34 0.37 0.37 0.37 0.37 0.39 0.39 0.42 0.47 0.49 0.50 0.53 0.55 0.57 0.64 0.73 0.87 0.95 1.00 1.04 1.03
0.23 0.26 0.29 0.25 0.23 0.20 0.19 0.16 0.18 0.19 0.24 0.25 0.22 0.19 0.20 0.22 0.23 0.26 0.28 0.29 0.30 0.30 0.30 0.32 0.33 0.36 0.37 0.36 0.37 0.38 0.38 0.43 0.46 0.48 0.49 0.47 0.48 0.49 0.51 0.58 0.67 0.84 0.96 1.00
0.24 0.28 0.26 0.24 0.21 0.23 0.17 0.25 0.24 0.21 0.19 0.12 0.24 0.12 0.18 0.19 0.20 0.22 0.24 0.25 0.28 0.30 0.32 0.33 0.34 0.35 0.37 0.38 0.38 0.38 0.40 0.42 0.43 0.44 0.44 0.45 0.44 0.41 0.46 0.48 0.50 0.54 0.60 0.67
0.19 0.24 0.23 0.21 0.24 0.29 0.23 0.28 0.24 0.22 0.17 0.16 0.17 0.15 0.19 0.20 0.19 0.21 0.23 0.25 0.26 0.30 0.33 0.34 0.35 0.37 0.39 0.40 0.39 0.41 0.41 0.41 0.43 0.42 0.42 0.42 0.41 0.43 0.47 0.47 0.47 0.47 0.47 0.49
0.27 0.34 0.29 0.29 0.31 0.31 0.27 0.21 0.17 0.20 0.18 0.11 0.15 0.16 0.16 0.18 0.20 0.22 0.25 0.26 0.27 0.28 0.30 0.34 0.35 0.36 0.37 0.39 0.39 0.40 0.41 0.41 0.41 0.42 0.42 0.39 0.36 0.38 0.40 0.44 0.49 0.47 0.48 0.48
0.20 0.27 0.30 0.30 0.23 0.24 0.21 0.15 0.08 0.09 0.11 0.09 0.20 0.18 0.18 0.23 0.24 0.25 0.25 0.25 0.27 0.28 0.27 0.30 0.31 0.32 0.32 0.32 0.32 0.32 0.34 0.32 0.34 0.33 0.32 0.33 0.32 0.35 0.40 0.47 0.46 0.44 0.44 0.45
0.14 0.14 0.22 0.24 0.21 0.17 0.17 0.17 0.11 0.07 0.08 0.11 0.17 0.12 0.16 0.22 0.24 0.25 0.25 0.25 0.26 0.26 0.27 0.29 0.31 0.31 0.31 0.31 0.31 0.32 0.31 0.30 0.31 0.31 0.30 0.30 0.30 0.30 0.33 0.34 0.36 0.37 0.38 0.41
0.11 0.11 0.20 0.23 0.24 0.20 0.16 0.14 0.20 0.14 0.16 0.13 0.14 0.17 0.19 0.21 0.21 0.23 0.23 0.24 0.25 0.26 0.26 0.29 0.31 0.31 0.31 0.31 0.31 0.31 0.31 0.32 0.32 0.32 0.31 0.31 0.31 0.29 0.28 0.27 0.28 0.33 0.33 0.37
0.15 0.10 0.14 0.18 0.22 0.21 0.19 0.22 0.15 0.15 0.10 0.09 0.11 0.12 0.12 0.16 0.18 0.21 0.22 0.23 0.25 0.26 0.26 0.27 0.28 0.29 0.31 0.32 0.33 0.32 0.33 0.32 0.32 0.31 0.31 0.33 0.33 0.32 0.29 0.28 0.28 0.32 0.32 0.38
0.17 0.14 0.13 0.16 0.16 0.15 0.15 0.16 0.19 0.18 0.15 0.11 0.10 0.11 0.17 0.17 0.20 0.21 0.23 0.24 0.24 0.25 0.25 0.26 0.29 0.30 0.31 0.32 0.31 0.32 0.34 0.34 0.35 0.34 0.33 0.33 0.31 0.30 0.30 0.28 0.25 0.26 0.29 0.34
0.18 0.16 0.13 0.14 0.18 0.22 0.20 0.17 0.17 0.13 0.12 0.15 0.15 0.12 0.19 0.20 0.21 0.22 0.23 0.23 0.23 0.26 0.26 0.27 0.28 0.28 0.28 0.29 0.30 0.32 0.35 0.35 0.35 0.35 0.35 0.33 0.30 0.29 0.30 0.30 0.29 0.29 0.30 0.36
0.19 0.16 0.13 0.14 0.20 0.23 0.20 0.21 0.21 0.20 0.19 0.14 0.12 0.12 0.20 0.21 0.21 0.20 0.21 0.22 0.25 0.26 0.26 0.26 0.26 0.27 0.29 0.31 0.33 0.34 0.34 0.34 0.35 0.35 0.36 0.34 0.32 0.31 0.31 0.33 0.31 0.32 0.33 0.35
0.24 0.18 0.15 0.13 0.14 0.17 0.16 0.19 0.21 0.19 0.15 0.14 0.14 0.13 0.15 0.17 0.18 0.21 0.22 0.24 0.27 0.25 0.25 0.25 0.25 0.26 0.28 0.31 0.32 0.34 0.34 0.36 0.35 0.35 0.36 0.36 0.36 0.34 0.34 0.36 0.34 0.34 0.36 0.35
0.25 0.18 0.20 0.19 0.19 0.19 0.19 0.19 0.20 0.18 0.18 0.15 0.14 0.15 0.16 0.19 0.22 0.23 0.24 0.25 0.23 0.22 0.22 0.23 0.26 0.29 0.31 0.33 0.34 0.39 0.37 0.41 0.40 0.40 0.38 0.38 0.39 0.38 0.37 0.37 0.37 0.37 0.34 0.37
0.28 0.19 0.22 0.18 0.20 0.21 0.19 0.21 0.21 0.20 0.20 0.19 0.18 0.17 0.22 0.24 0.24 0.24 0.23 0.22 0.22 0.22 0.24 0.26 0.28 0.28 0.29 0.32 0.37 0.38 0.40 0.45 0.45 0.42 0.43 0.44 0.42 0.40 0.37 0.39 0.39 0.38 0.36 0.40
0.24 0.23 0.20 0.15 0.21 0.20 0.16 0.19 0.21 0.21 0.21 0.19 0.16 0.18 0.23 0.22 0.23 0.23 0.23 0.24 0.23 0.24 0.26 0.24 0.26 0.28 0.31 0.35 0.38 0.39 0.42 0.44 0.46 0.45 0.43 0.42 0.42 0.41 0.40 0.40 0.40 0.38 0.39 0.37
0.24 0.24 0.22 0.17 0.19 0.13 0.19 0.25 0.24 0.21 0.22 0.23 0.22 0.22 0.24 0.23 0.24 0.27 0.28 0.26 0.25 0.24 0.24 0.27 0.29 0.30 0.33 0.37 0.38 0.38 0.39 0.40 0.41 0.43 0.44 0.45 0.42 0.41 0.40 0.41 0.40 0.39 0.40 0.37
0.30 0.26 0.21 0.17 0.18 0.19 0.20 0.23 0.23 0.22 0.20 0.24 0.24 0.25 0.24 0.26 0.26 0.23 0.27 0.27 0.24 0.26 0.28 0.29 0.30 0.32 0.34 0.36 0.38 0.39 0.38 0.39 0.39 0.40 0.42 0.43 0.44 0.43 0.41 0.41 0.40 0.40 0.40 0.38
0.32 0.31 0.24 0.22 0.17 0.15 0.21 0.27 0.31 0.29 0.19 0.26 0.26 0.25 0.26 0.28 0.18 0.18 0.25 0.25 0.24 0.26 0.27 0.29 0.34 0.37 0.38 0.39 0.40 0.39 0.39 0.39 0.39 0.40 0.42 0.44 0.43 0.44 0.44 0.43 0.41 0.41 0.41 0.39
0.28 0.28 0.24 0.23 0.22 0.23 0.28 0.31 0.34 0.21 0.20 0.28 0.29 0.29 0.28 0.23 0.24 0.27 0.27 0.23 0.25 0.27 0.29 0.34 0.35 0.36 0.38 0.39 0.41 0.41 0.43 0.42 0.43 0.44 0.44 0.45 0.47 0.45 0.44 0.44 0.44 0.41 0.39 0.35
0.26 0.25 0.25 0.27 0.24 0.21 0.33 0.32 0.26 0.27 0.31 0.30 0.31 0.31 0.27 0.27 0.27 0.26 0.23 0.24 0.27 0.28 0.31 0.34 0.34 0.36 0.39 0.42 0.42 0.42 0.41 0.44 0.47 0.49 0.48 0.47 0.46 0.46 0.46 0.41 0.40 0.39 0.36 0.33
0.28 0.31 0.28 0.28 0.26 0.32 0.34 0.31 0.33 0.34 0.31 0.33 0.32 0.31 0.29 0.26 0.24 0.23 0.23 0.24 0.26 0.31 0.35 0.38 0.39 0.40 0.45 0.48 0.46 0.42 0.44 0.44 0.44 0.44 0.45 0.46 0.46 0.45 0.42 0.40 0.38 0.35 0.35 0.34
0.36 0.38 0.32 0.31 0.31 0.31 0.34 0.35 0.35 0.35 0.34 0.34 0.33 0.30 0.30 0.25 0.24 0.23 0.24 0.26 0.28 0.34 0.36 0.40 0.42 0.43 0.45 0.50 0.50 0.49 0.48 0.45 0.42 0.41 0.42 0.42 0.42 0.41 0.41 0.39 0.37 0.34 0.35 0.34
0.39 0.39 0.36 0.33 0.33 0.35 0.35 0.34 0.33 0.34 0.35 0.32 0.31 0.32 0.29 0.26 0.24 0.25 0.25 0.27 0.32 0.36 0.40 0.43 0.44 0.45 0.47 0.50 0.51 0.54 0.53 0.49 0.41 0.39 0.38 0.38 0.39 0.40 0.37 0.35 0.35 0.35 0.37 0.38
0.41 0.36 0.33 0.30 0.35 0.32 0.32 0.34 0.36 0.34 0.31 0.31 0.31 0.29 0.28 0.27 0.26 0.27 0.27 0.31 0.35 0.38 0.41 0.43 0.45 0.47 0.48 0.50 0.52 0.54 0.55 0.54 0.48 0.41 0.37 0.37 0.37 0.36 0.36 0.35 0.35 0.39 0.42 0.48

GFSCGP_prec_pwat_036.txt.gz
Precipitable_Water
0.24 0.18 0.15 0.18 0.20 0.24 0.24 0.21 0.18 0.19 0.24 0.22 0.19 0.19 0.22 0.24 0.24 0.24 0.26 0.27 0.28 0.29 0.32 0.34 0.35 0.35 0.35 0.35 0.35 0.38 0.40 0.42 0.42 0.41 0.40 0.40 0.44 0.54 0.63 0.75 0.85 0.92 0.99 1.05
0.20 0.15 0.22 0.27 0.28 0.25 0.22 0.17 0.16 0.20 0.27 0.24 0.21 0.19 0.22 0.23 0.24 0.25 0.25 0.26 0.27 0.29 0.30 0.31 0.33 0.34 0.34 0.34 0.35 0.36 0.40 0.42 0.41 0.41 0.42 0.42 0.42 0.43 0.47 0.53 0.59 0.70 0.81 0.88
0.18 0.23 0.31 0.27 0.24 0.21 0.19 0.18 0.19 0.20 0.26 0.26 0.21 0.18 0.19 0.21 0.23 0.24 0.25 0.26 0.28 0.29 0.29 0.30 0.32 0.34 0.35 0.34 0.35 0.36 0.38 0.39 0.41 0.42 0.42 0.42 0.42 0.40 0.37 0.38 0.42 0.49 0.58 0.65
0.25 0.29 0.26 0.24 0.21 0.23 0.18 0.26 0.25 0.23 0.20 0.13 0.22 0.10 0.17 0.18 0.18 0.20 0.22 0.23 0.26 0.29 0.31 0.32 0.32 0.33 0.35 0.36 0.37 0.38 0.39 0.40 0.41 0.42 0.40 0.40 0.39 0.38 0.41 0.42 0.46 0.49 0.48 0.46
0.20 0.23 0.23 0.22 0.23 0.29 0.23 0.27 0.23 0.20 0.17 0.16 0.17 0.15 0.16 0.19 0.17 0.19 0.22 0.24 0.25 0.27 0.28 0.31 0.32 0.33 0.34 0.34 0.33 0.33 0.34 0.35 0.36 0.36 0.34 0.33 0.33 0.35 0.39 0.42 0.44 0.52 0.50 0.49
0.25 0.33 0.28 0.27 0.30 0.30 0.27 0.20 0.17 0.20 0.18 0.10 0.16 0.16 0.15 0.17 0.19 0.21 0.23 0.25 0.26 0.27 0.27 0.27 0.31 0.31 0.31 0.32 0.31 0.31 0.32 0.32 0.32 0.32 0.31 0.29 0.28 0.28 0.28 0.31 0.35 0.40 0.42 0.43
0.22 0.24 0.27 0.30 0.23 0.23 0.20 0.13 0.09 0.08 0.11 0.10 0.20 0.17 0.16 0.22 0.22 0.23 0.23 0.24 0.26 0.26 0.26 0.26 0.27 0.30 0.31 0.30 0.31 0.31 0.30 0.30 0.31 0.31 0.30 0.30 0.29 0.29 0.27 0.28 0.29 0.28 0.28 0.31
0.13 0.14 0.23 0.25 0.20 0.17 0.17 0.15 0.11 0.08 0.08 0.10 0.17 0.12 0.15 0.21 0.23 0.24 0.24 0.25 0.25 0.25 0.26 0.26 0.28 0.30 0.30 0.31 0.31 0.31 0.31 0.31 0.32 0.33 0.33 0.34 0.32 0.31 0.30 0.32 0.32 0.30 0.27 0.30
0.11 0.11 0.20 0.22 0.23 0.20 0.17 0.14 0.21 0.13 0.16 0.12 0.13 0.16 0.19 0.20 0.20 0.22 0.22 0.23 0.24 0.25 0.26 0.27 0.29 0.30 0.30 0.29 0.29 0.28 0.27 0.28 0.30 0.32 0.33 0.33 0.34 0.33 0.32 0.32 0.32 0.31 0.31 0.31
0.15 0.11 0.15 0.18 0.21 0.21 0.20 0.21 0.14 0.15 0.10 0.09 0.11 0.12 0.12 0.16 0.17 0.20 0.20 0.22 0.24 0.26 0.27 0.27 0.27 0.27 0.27 0.27 0.26 0.27 0.27 0.27 0.29 0.31 0.33 0.33 0.34 0.34 0.34 0.33 0.30 0.31 0.33 0.33
0.17 0.14 0.13 0.16 0.16 0.16 0.17 0.16 0.18 0.18 0.16 0.11 0.10 0.11 0.17 0.16 0.18 0.19 0.21 0.24 0.25 0.24 0.26 0.27 0.27 0.26 0.24 0.24 0.25 0.25 0.27 0.29 0.29 0.31 0.31 0.33 0.33 0.36 0.37 0.34 0.31 0.33 0.32 0.33
0.18 0.15 0.12 0.13 0.18 0.22 0.19 0.17 0.17 0.14 0.13 0.15 0.15 0.12 0.21 0.20 0.21 0.22 0.23 0.24 0.25 0.26 0.27 0.26 0.25 0.24 0.24 0.25 0.26 0.27 0.29 0.31 0.34 0.33 0.37 0.37 0.36 0.37 0.38 0.35 0.35 0.35 0.34 0.34
0.19 0.15 0.13 0.14 0.19 0.22 0.19 0.20 0.20 0.20 0.20 0.15 0.13 0.13 0.22 0.22 0.22 0.23 0.23 0.25 0.25 0.26 0.26 0.25 0.24 0.24 0.26 0.27 0.28 0.28 0.30 0.32 0.33 0.37 0.39 0.36 0.39 0.39 0.40 0.38 0.39 0.38 0.36 0.35
0.24 0.18 0.15 0.14 0.15 0.18 0.17 0.19 0.21 0.20 0.17 0.16 0.16 0.15 0.19 0.20 0.20 0.21 0.24 0.25 0.26 0.26 0.25 0.25 0.24 0.25 0.26 0.26 0.26 0.27 0.29 0.33 0.37 0.39 0.37 0.39 0.43 0.42 0.45 0.44 0.43 0.43 0.39 0.37
0.23 0.17 0.19 0.19 0.20 0.20 0.19 0.18 0.19 0.19 0.19 0.16 0.16 0.16 0.18 0.19 0.21 0.24 0.26 0.27 0.25 0.24 0.25 0.25 0.25 0.25 0.24 0.25 0.27 0.30 0.34 0.36 0.38 0.38 0.39 0.42 0.42 0.45 0.44 0.47 0.47 0.47 0.44 0.42
0.27 0.19 0.22 0.19 0.22 0.22 0.19 0.21 0.22 0.21 0.21 0.21 0.20 0.20 0.23 0.25 0.27 0.27 0.27 0.25 0.24 0.24 0.24 0.24 0.22 0.22 0.25 0.27 0.29 0.32 0.34 0.36 0.38 0.37 0.37 0.40 0.42 0.43 0.44 0.44 0.44 0.44 0.42 0.44
0.23 0.21 0.20 0.16 0.22 0.20 0.16 0.19 0.20 0.22 0.23 0.22 0.19 0.22 0.25 0.25 0.27 0.27 0.26 0.27 0.25 0.24 0.24 0.22 0.22 0.24 0.26 0.29 0.32 0.33 0.35 0.36 0.36 0.37 0.39 0.41 0.42 0.41 0.43 0.45 0.46 0.44 0.42 0.44
0.24 0.23 0.23 0.19 0.20 0.14 0.20 0.26 0.25 0.23 0.24 0.27 0.26 0.27 0.28 0.28 0.29 0.30 0.30 0.27 0.26 0.24 0.23 0.24 0.24 0.25 0.29 0.33 0.35 0.37 0.39 0.40 0.39 0.40 0.40 0.40 0.41 0.42 0.43 0.44 0.45 0.45 0.44 0.45
0.31 0.27 0.22 0.19 0.19 0.20 0.22 0.25 0.24 0.23 0.23 0.29 0.28 0.29 0.29 0.29 0.29 0.28 0.30 0.29 0.27 0.25 0.25 0.25 0.27 0.31 0.34 0.36 0.38 0.39 0.40 0.42 0.43 0.40 0.41 0.41 0.42 0.43 0.43 0.42 0.44 0.44 0.45 0.46
0.35 0.34 0.27 0.25 0.20 0.17 0.23 0.30 0.33 0.31 0.21 0.29 0.30 0.29 0.28 0.29 0.21 0.23 0.29 0.29 0.26 0.26 0.26 0.26 0.31 0.35 0.36 0.39 0.42 0.42 0.43 0.45 0.45 0.44 0.43 0.43 0.45 0.44 0.44 0.45 0.46 0.50 0.46 0.46
0.32 0.31 0.27 0.27 0.25 0.25 0.31 0.34 0.35 0.22 0.22 0.29 0.31 0.30 0.30 0.27 0.28 0.29 0.30 0.25 0.26 0.26 0.25 0.29 0.32 0.36 0.39 0.42 0.44 0.44 0.46 0.47 0.51 0.51 0.49 0.44 0.46 0.44 0.46 0.47 0.47 0.46 0.49 0.45
0.28 0.27 0.26 0.28 0.25 0.21 0.34 0.33 0.27 0.29 0.31 0.32 0.33 0.33 0.32 0.32 0.31 0.29 0.26 0.26 0.26 0.25 0.25 0.29 0.34 0.37 0.41 0.45 0.46 0.45 0.46 0.52 0.54 0.54 0.51 0.44 0.43 0.44 0.44 0.45 0.45 0.44 0.43 0.39
0.22 0.25 0.24 0.27 0.25 0.34 0.37 0.36 0.37 0.36 0.34 0.35 0.35 0.35 0.34 0.30 0.27 0.26 0.25 0.26 0.26 0.26 0.28 0.33 0.36 0.38 0.42 0.47 0.48 0.45 0.49 0.53 0.54 0.53 0.52 0.46 0.41 0.43 0.42 0.42 0.42 0.41 0.38 0.34
0.29 0.35 0.31 0.30 0.30 0.35 0.37 0.39 0.39 0.38 0.36 0.38 0.37 0.35 0.32 0.28 0.27 0.25 0.26 0.25 0.25 0.27 0.30 0.35 0.38 0.40 0.41 0.46 0.49 0.50 0.52 0.54 0.53 0.51 0.50 0.48 0.38 0.37 0.39 0.40 0.39 0.35 0.33 0.32
0.31 0.34 0.32 0.29 0.33 0.34 0.35 0.36 0.36 0.38 0.39 0.37 0.36 0.33 0.31 0.29 0.26 0.27 0.26 0.25 0.26 0.28 0.32 0.36 0.38 0.41 0.42 0.46 0.49 0.50 0.54 0.54 0.50 0.51 0.50 0.49 0.41 0.36 0.37 0.39 0.37 0.35 0.35 0.34
0.34 0.28 0.27 0.26 0.34 0.34 0.33 0.37 0.38 0.36 0.35 0.35 0.33 0.31 0.32 0.29 0.27 0.27 0.26 0.27 0.28 0.30 0.33 0.36 0.40 0.41 0.43 0.46 0.49 0.52 0.55 0.53 0.50 0.48 0.50 0.49 0.47 0.39 0.38 0.36 0.36 0.39 0.39 0.41

GFSCGP_prec_pwat_039.txt.gz
Precipitable_Water
0.22 0.16 0.14 0.18 0.20 0.20 0.21 0.21 0.20 0.20 0.24 0.21 0.19 0.20 0.23 0.26 0.25 0.25 0.26 0.26 0.27 0.28 0.31 0.33 0.33 0.33 0.33 0.33 0.34 0.37 0.38 0.39 0.40 0.39 0.38 0.37 0.35 0.36 0.38 0.43 0.52 0.59 0.67 0.76
0.19 0.15 0.22 0.24 0.24 0.25 0.24 0.19 0.16 0.21 0.26 0.24 0.22 0.20 0.23 0.24 0.24 0.24 0.25 0.25 0.26 0.28 0.29 0.30 0.32 0.34 0.34 0.34 0.35 0.35 0.38 0.39 0.40 0.40 0.41 0.42 0.41 0.41 0.40 0.40 0.38 0.44 0.48 0.55
0.18 0.21 0.26 0.25 0.26 0.21 0.20 0.17 0.18 0.20 0.26 0.25 0.21 0.17 0.19 0.22 0.23 0.24 0.25 0.26 0.28 0.28 0.29 0.30 0.31 0.33 0.35 0.34 0.34 0.34 0.35 0.34 0.34 0.34 0.34 0.33 0.33 0.34 0.35 0.36 0.37 0.39 0.44 0.46
0.22 0.27 0.27 0.25 0.22 0.23 0.16 0.25 0.25 0.23 0.20 0.13 0.20 0.09 0.16 0.18 0.19 0.21 0.22 0.23 0.24 0.25 0.28 0.30 0.31 0.31 0.31 0.32 0.33 0.32 0.32 0.32 0.33 0.33 0.30 0.28 0.26 0.25 0.28 0.29 0.32 0.33 0.39 0.40
0.21 0.23 0.23 0.22 0.23 0.27 0.23 0.28 0.23 0.20 0.17 0.17 0.17 0.15 0.17 0.20 0.17 0.19 0.21 0.23 0.24 0.25 0.26 0.26 0.26 0.29 0.31 0.32 0.32 0.32 0.31 0.31 0.31 0.31 0.31 0.30 0.29 0.30 0.31 0.30 0.31 0.31 0.34 0.35
0.24 0.31 0.27 0.26 0.30 0.30 0.27 0.20 0.18 0.20 0.18 0.11 0.16 0.17 0.13 0.16 0.18 0.19 0.22 0.24 0.25 0.25 0.26 0.26 0.27 0.27 0.30 0.32 0.32 0.31 0.30 0.30 0.30 0.30 0.30 0.31 0.31 0.30 0.30 0.30 0.29 0.31 0.32 0.31
0.23 0.26 0.28 0.29 0.23 0.24 0.19 0.13 0.09 0.09 0.11 0.10 0.20 0.17 0.16 0.21 0.22 0.22 0.22 0.24 0.25 0.26 0.26 0.26 0.26 0.26 0.29 0.30 0.30 0.30 0.30 0.28 0.28 0.28 0.28 0.30 0.32 0.33 0.32 0.31 0.31 0.31 0.32 0.31
0.15 0.15 0.24 0.26 0.21 0.16 0.17 0.15 0.11 0.09 0.09 0.10 0.17 0.11 0.14 0.21 0.23 0.24 0.24 0.25 0.26 0.25 0.26 0.26 0.27 0.28 0.29 0.29 0.29 0.27 0.26 0.25 0.26 0.26 0.26 0.28 0.31 0.32 0.33 0.34 0.35 0.34 0.35 0.34
0.13 0.11 0.19 0.21 0.22 0.21 0.17 0.14 0.20 0.13 0.15 0.11 0.12 0.15 0.19 0.21 0.21 0.22 0.23 0.25 0.25 0.25 0.26 0.27 0.28 0.28 0.28 0.27 0.25 0.24 0.24 0.24 0.26 0.26 0.27 0.29 0.29 0.31 0.31 0.34 0.37 0.37 0.38 0.36
0.14 0.10 0.15 0.18 0.21 0.22 0.20 0.21 0.14 0.14 0.09 0.09 0.11 0.12 0.13 0.16 0.18 0.21 0.22 0.23 0.25 0.26 0.27 0.29 0.29 0.29 0.27 0.26 0.25 0.25 0.26 0.25 0.26 0.26 0.27 0.29 0.32 0.33 0.33 0.36 0.35 0.35 0.37 0.38
0.16 0.13 0.13 0.17 0.17 0.16 0.18 0.17 0.17 0.17 0.15 0.11 0.10 0.11 0.17 0.18 0.19 0.20 0.22 0.24 0.25 0.27 0.28 0.29 0.30 0.29 0.28 0.27 0.26 0.26 0.26 0.26 0.26 0.27 0.28 0.31 0.31 0.33 0.37 0.37 0.37 0.38 0.39 0.40
0.18 0.15 0.13 0.14 0.18 0.21 0.20 0.17 0.17 0.13 0.13 0.15 0.15 0.13 0.21 0.21 0.21 0.22 0.23 0.25 0.27 0.30 0.30 0.31 0.30 0.29 0.28 0.26 0.26 0.27 0.26 0.26 0.27 0.30 0.32 0.33 0.35 0.37 0.36 0.35 0.38 0.43 0.41 0.41
0.19 0.16 0.13 0.14 0.19 0.23 0.19 0.20 0.19 0.19 0.19 0.15 0.13 0.14 0.22 0.23 0.23 0.23 0.24 0.26 0.29 0.29 0.31 0.31 0.30 0.27 0.26 0.26 0.26 0.25 0.25 0.28 0.31 0.34 0.35 0.35 0.35 0.36 0.36 0.37 0.41 0.41 0.43 0.45
0.23 0.18 0.16 0.14 0.16 0.18 0.17 0.20 0.22 0.20 0.17 0.17 0.17 0.16 0.20 0.22 0.22 0.24 0.26 0.28 0.30 0.32 0.31 0.30 0.28 0.27 0.25 0.24 0.24 0.26 0.28 0.32 0.34 0.34 0.35 0.35 0.37 0.39 0.40 0.42 0.42 0.42 0.43 0.46
0.23 0.16 0.18 0.19 0.20 0.20 0.20 0.20 0.21 0.20 0.20 0.17 0.17 0.18 0.21 0.22 0.24 0.26 0.29 0.31 0.31 0.29 0.29 0.28 0.26 0.23 0.23 0.25 0.27 0.29 0.32 0.34 0.35 0.36 0.37 0.38 0.40 0.41 0.41 0.41 0.42 0.44 0.44 0.45
0.26 0.18 0.22 0.19 0.22 0.22 0.20 0.22 0.23 0.22 0.22 0.22 0.22 0.21 0.26 0.28 0.29 0.30 0.32 0.32 0.29 0.28 0.29 0.26 0.23 0.24 0.25 0.26 0.29 0.31 0.34 0.36 0.38 0.38 0.39 0.42 0.44 0.44 0.42 0.41 0.40 0.41 0.44 0.43
0.24 0.22 0.20 0.16 0.21 0.20 0.16 0.22 0.23 0.25 0.26 0.24 0.21 0.24 0.29 0.29 0.30 0.32 0.32 0.30 0.28 0.29 0.27 0.23 0.24 0.25 0.26 0.29 0.33 0.33 0.35 0.37 0.38 0.39 0.42 0.44 0.45 0.44 0.44 0.42 0.40 0.40 0.43 0.46
0.27 0.26 0.24 0.20 0.22 0.16 0.23 0.28 0.28 0.26 0.27 0.28 0.27 0.29 0.31 0.32 0.34 0.35 0.33 0.30 0.29 0.28 0.24 0.24 0.25 0.26 0.29 0.33 0.35 0.37 0.39 0.40 0.42 0.43 0.44 0.47 0.47 0.46 0.46 0.43 0.41 0.41 0.42 0.45
0.35 0.30 0.25 0.22 0.22 0.23 0.26 0.29 0.28 0.26 0.25 0.30 0.28 0.30 0.32 0.33 0.34 0.31 0.32 0.33 0.31 0.27 0.25 0.26 0.28 0.30 0.32 0.34 0.37 0.39 0.40 0.42 0.44 0.44 0.47 0.49 0.51 0.50 0.49 0.44 0.42 0.42 0.42 0.44
0.38 0.36 0.29 0.27 0.22 0.18 0.24 0.29 0.32 0.30 0.21 0.28 0.30 0.30 0.30 0.32 0.24 0.26 0.32 0.34 0.29 0.26 0.27 0.28 0.31 0.32 0.33 0.36 0.40 0.40 0.40 0.42 0.43 0.46 0.49 0.52 0.54 0.52 0.49 0.43 0.43 0.42 0.44 0.47
0.26 0.27 0.23 0.22 0.20 0.19 0.26 0.29 0.32 0.20 0.21 0.30 0.32 0.32 0.32 0.30 0.31 0.33 0.34 0.30 0.27 0.28 0.28 0.31 0.32 0.32 0.35 0.38 0.40 0.39 0.41 0.42 0.46 0.50 0.52 0.52 0.55 0.53 0.52 0.45 0.41 0.42 0.45 0.46
0.20 0.19 0.19 0.20 0.18 0.15 0.30 0.31 0.27 0.30 0.32 0.34 0.34 0.33 0.34 0.35 0.35 0.33 0.31 0.26 0.27 0.27 0.28 0.31 0.31 0.32 0.36 0.40 0.41 0.39 0.40 0.46 0.50 0.52 0.51 0.51 0.54 0.53 0.50 0.40 0.40 0.41 0.42 0.43
0.19 0.22 0.19 0.21 0.19 0.29 0.34 0.34 0.35 0.35 0.33 0.34 0.35 0.36 0.37 0.34 0.32 0.30 0.26 0.27 0.27 0.28 0.29 0.31 0.31 0.32 0.36 0.40 0.42 0.40 0.43 0.49 0.51 0.51 0.49 0.51 0.53 0.52 0.46 0.37 0.38 0.38 0.39 0.38
0.23 0.27 0.21 0.20 0.23 0.31 0.33 0.36 0.37 0.36 0.35 0.37 0.39 0.38 0.36 0.32 0.31 0.28 0.27 0.27 0.27 0.28 0.29 0.31 0.31 0.31 0.34 0.39 0.41 0.43 0.47 0.52 0.52 0.49 0.49 0.51 0.50 0.50 0.45 0.39 0.38 0.37 0.35 0.33
0.24 0.26 0.24 0.21 0.27 0.35 0.35 0.36 0.37 0.37 0.38 0.40 0.41 0.38 0.36 0.33 0.30 0.29 0.27 0.27 0.28 0.29 0.30 0.31 0.31 0.33 0.35 0.40 0.42 0.47 0.50 0.52 0.49 0.49 0.49 0.50 0.50 0.48 0.43 0.42 0.41 0.40 0.39 0.37
0.25 0.24 0.22 0.18 0.32 0.34 0.32 0.37 0.39 0.38 0.38 0.41 0.40 0.38 0.37 0.34 0.31 0.29 0.28 0.29 0.29 0.28 0.29 0.30 0.32 0.35 0.37 0.40 0.43 0.48 0.51 0.52 0.48 0.46 0.48 0.49 0.49 0.47 0.45 0.42 0.40 0.43 0.43 0.43

GFSCGP_prec_pwat_042.txt.gz
Precipitable_Water
0.22 0.17 0.15 0.18 0.20 0.20 0.20 0.18 0.19 0.23 0.25 0.21 0.20 0.21 0.24 0.27 0.27 0.26 0.27 0.26 0.27 0.27 0.31 0.33 0.34 0.34 0.33 0.34 0.34 0.36 0.37 0.39 0.39 0.38 0.37 0.36 0.36 0.37 0.36 0.37 0.38 0.39 0.45 0.49
0.19 0.16 0.22 0.23 0.23 0.22 0.22 0.20 0.18 0.21 0.25 0.24 0.24 0.21 0.25 0.26 0.25 0.26 0.26 0.26 0.26 0.28 0.29 0.31 0.32 0.34 0.35 0.35 0.35 0.34 0.33 0.33 0.34 0.34 0.33 0.31 0.29 0.28 0.30 0.32 0.32 0.33 0.38 0.42
0.17 0.22 0.26 0.24 0.22 0.22 0.22 0.18 0.18 0.20 0.26 0.26 0.21 0.17 0.19 0.23 0.25 0.26 0.26 0.27 0.28 0.29 0.29 0.30 0.32 0.34 0.34 0.34 0.33 0.32 0.32 0.32 0.32 0.34 0.33 0.32 0.31 0.30 0.29 0.30 0.29 0.29 0.31 0.32
0.23 0.26 0.24 0.24 0.23 0.23 0.18 0.24 0.25 0.24 0.20 0.15 0.20 0.09 0.18 0.21 0.22 0.23 0.25 0.26 0.26 0.28 0.28 0.29 0.30 0.31 0.33 0.34 0.35 0.34 0.33 0.32 0.33 0.33 0.32 0.30 0.28 0.27 0.31 0.33 0.33 0.35 0.35 0.35
0.22 0.23 0.23 0.22 0.23 0.26 0.24 0.29 0.26 0.22 0.17 0.16 0.18 0.14 0.18 0.21 0.18 0.21 0.23 0.24 0.25 0.27 0.27 0.27 0.28 0.29 0.30 0.34 0.34 0.34 0.34 0.32 0.31 0.31 0.31 0.30 0.30 0.31 0.32 0.34 0.34 0.34 0.36 0.36
0.26 0.32 0.26 0.26 0.29 0.29 0.30 0.24 0.19 0.19 0.18 0.13 0.17 0.17 0.15 0.16 0.18 0.20 0.22 0.23 0.25 0.27 0.28 0.29 0.29 0.30 0.30 0.33 0.35 0.35 0.32 0.30 0.31 0.30 0.29 0.29 0.28 0.28 0.29 0.31 0.32 0.32 0.33 0.35
0.23 0.24 0.28 0.31 0.25 0.28 0.24 0.16 0.11 0.12 0.14 0.13 0.19 0.17 0.16 0.22 0.22 0.22 0.22 0.23 0.25 0.27 0.28 0.28 0.28 0.28 0.30 0.31 0.31 0.30 0.29 0.28 0.27 0.27 0.28 0.29 0.29 0.30 0.29 0.29 0.31 0.32 0.33 0.35
0.17 0.18 0.25 0.28 0.25 0.18 0.17 0.15 0.12 0.10 0.11 0.12 0.19 0.13 0.16 0.20 0.23 0.23 0.23 0.24 0.26 0.27 0.28 0.28 0.28 0.30 0.31 0.31 0.31 0.30 0.29 0.28 0.28 0.28 0.28 0.28 0.28 0.28 0.29 0.31 0.32 0.33 0.34 0.36
0.16 0.15 0.24 0.24 0.23 0.20 0.18 0.15 0.21 0.15 0.15 0.12 0.13 0.15 0.18 0.20 0.20 0.21 0.22 0.24 0.25 0.27 0.28 0.29 0.30 0.32 0.33 0.32 0.32 0.31 0.29 0.28 0.28 0.28 0.28 0.27 0.27 0.28 0.29 0.32 0.34 0.34 0.35 0.37
0.17 0.12 0.16 0.19 0.21 0.21 0.20 0.22 0.16 0.16 0.11 0.10 0.12 0.13 0.13 0.17 0.18 0.21 0.22 0.23 0.26 0.28 0.29 0.30 0.32 0.35 0.35 0.34 0.33 0.32 0.29 0.27 0.28 0.28 0.28 0.28 0.29 0.31 0.33 0.34 0.33 0.36 0.37 0.37
0.17 0.13 0.13 0.16 0.16 0.17 0.19 0.18 0.18 0.17 0.15 0.12 0.11 0.13 0.18 0.18 0.20 0.21 0.22 0.25 0.27 0.28 0.30 0.32 0.34 0.35 0.35 0.34 0.33 0.29 0.27 0.27 0.27 0.28 0.30 0.31 0.33 0.35 0.36 0.36 0.37 0.39 0.38 0.36
0.18 0.15 0.13 0.14 0.19 0.22 0.20 0.18 0.19 0.16 0.16 0.16 0.16 0.14 0.22 0.22 0.22 0.23 0.24 0.26 0.28 0.31 0.33 0.34 0.35 0.35 0.34 0.33 0.28 0.26 0.26 0.27 0.30 0.32 0.32 0.33 0.35 0.37 0.37 0.39 0.41 0.42 0.42 0.42
0.20 0.16 0.15 0.16 0.20 0.23 0.19 0.21 0.20 0.20 0.19 0.16 0.15 0.16 0.24 0.24 0.24 0.25 0.26 0.27 0.30 0.33 0.35 0.35 0.35 0.34 0.33 0.28 0.25 0.25 0.28 0.29 0.31 0.33 0.33 0.34 0.35 0.36 0.37 0.39 0.42 0.44 0.45 0.47
0.23 0.19 0.17 0.16 0.18 0.19 0.18 0.20 0.21 0.20 0.18 0.18 0.18 0.19 0.23 0.25 0.25 0.27 0.28 0.31 0.33 0.34 0.36 0.36 0.35 0.34 0.28 0.24 0.25 0.27 0.29 0.32 0.33 0.35 0.35 0.35 0.36 0.38 0.39 0.42 0.44 0.45 0.46 0.46
0.25 0.19 0.19 0.19 0.19 0.19 0.19 0.19 0.21 0.20 0.21 0.19 0.21 0.21 0.23 0.25 0.26 0.28 0.30 0.32 0.34 0.36 0.36 0.34 0.33 0.29 0.24 0.24 0.26 0.29 0.31 0.33 0.35 0.35 0.36 0.37 0.39 0.40 0.42 0.43 0.45 0.47 0.47 0.47
0.28 0.21 0.22 0.19 0.23 0.23 0.21 0.23 0.25 0.24 0.25 0.24 0.25 0.23 0.29 0.29 0.30 0.31 0.32 0.35 0.36 0.35 0.34 0.33 0.31 0.25 0.24 0.25 0.27 0.30 0.33 0.34 0.37 0.37 0.38 0.41 0.43 0.45 0.45 0.46 0.48 0.48 0.49 0.49
0.27 0.25 0.23 0.20 0.24 0.23 0.21 0.25 0.26 0.27 0.29 0.27 0.23 0.26 0.30 0.28 0.30 0.32 0.35 0.36 0.36 0.34 0.33 0.31 0.25 0.24 0.26 0.28 0.30 0.32 0.34 0.38 0.37 0.38 0.40 0.42 0.44 0.44 0.48 0.50 0.51 0.49 0.50 0.49
0.31 0.29 0.27 0.23 0.25 0.19 0.28 0.30 0.30 0.27 0.27 0.28 0.26 0.27 0.29 0.30 0.34 0.36 0.38 0.37 0.34 0.34 0.32 0.26 0.25 0.27 0.29 0.30 0.33 0.35 0.37 0.37 0.38 0.39 0.42 0.43 0.45 0.46 0.49 0.51 0.51 0.52 0.52 0.47
0.36 0.30 0.25 0.21 0.20 0.22 0.23 0.23 0.23 0.21 0.20 0.26 0.26 0.28 0.31 0.34 0.37 0.34 0.36 0.37 0.36 0.34 0.28 0.26 0.28 0.29 0.30 0.31 0.34 0.35 0.35 0.37 0.39 0.39 0.42 0.46 0.48 0.49 0.50 0.50 0.52 0.53 0.52 0.44
0.30 0.28 0.22 0.19 0.16 0.13 0.18 0.24 0.27 0.26 0.19 0.26 0.28 0.30 0.32 0.32 0.25 0.29 0.37 0.38 0.35 0.30 0.27 0.28 0.29 0.30 0.31 0.33 0.35 0.35 0.35 0.37 0.38 0.41 0.44 0.48 0.51 0.52 0.50 0.51 0.51 0.51 0.46 0.41
0.20 0.21 0.17 0.18 0.16 0.17 0.21 0.25 0.28 0.19 0.24 0.31 0.31 0.31 0.30 0.29 0.31 0.36 0.39 0.36 0.33 0.28 0.29 0.30 0.30 0.31 0.32 0.34 0.35 0.35 0.35 0.37 0.41 0.45 0.49 0.50 0.52 0.52 0.52 0.52 0.52 0.44 0.41 0.41
0.17 0.18 0.16 0.18 0.15 0.12 0.25 0.27 0.25 0.30 0.32 0.33 0.33 0.32 0.32 0.34 0.37 0.38 0.37 0.34 0.29 0.29 0.30 0.30 0.30 0.31 0.32 0.34 0.34 0.34 0.36 0.41 0.46 0.49 0.50 0.49 0.51 0.52 0.53 0.51 0.47 0.42 0.38 0.37
0.15 0.19 0.18 0.19 0.20 0.27 0.29 0.29 0.34 0.37 0.33 0.33 0.34 0.35 0.36 0.37 0.38 0.37 0.35 0.30 0.29 0.30 0.30 0.31 0.31 0.30 0.32 0.34 0.35 0.35 0.40 0.45 0.48 0.49 0.46 0.47 0.50 0.52 0.53 0.47 0.44 0.41 0.38 0.36
0.21 0.27 0.20 0.20 0.22 0.24 0.27 0.32 0.36 0.39 0.38 0.38 0.38 0.38 0.40 0.39 0.38 0.37 0.33 0.29 0.30 0.30 0.30 0.31 0.29 0.29 0.30 0.35 0.37 0.40 0.43 0.48 0.48 0.45 0.44 0.47 0.48 0.49 0.50 0.48 0.46 0.42 0.40 0.39
0.24 0.25 0.20 0.17 0.23 0.27 0.30 0.36 0.37 0.38 0.42 0.41 0.39 0.39 0.40 0.41 0.39 0.37 0.31 0.29 0.30 0.31 0.31 0.29 0.28 0.29 0.31 0.34 0.37 0.41 0.45 0.50 0.46 0.44 0.45 0.46 0.48 0.48 0.48 0.48 0.47 0.43 0.44 0.42
0.24 0.20 0.19 0.16 0.25 0.27 0.27 0.33 0.36 0.35 0.36 0.38 0.37 0.39 0.41 0.43 0.39 0.34 0.30 0.30 0.32 0.31 0.30 0.27 0.28 0.30 0.32 0.35 0.38 0.43 0.50 0.49 0.44 0.44 0.47 0.48 0.48 0.48 0.49 0.47 0.45 0.50 0.48 0.49

GFSCGP_prec_pwat_048.txt.gz
Precipitable_Water
0.31 0.20 0.16 0.21 0.24 0.23 0.19 0.15 0.15 0.18 0.29 0.26 0.25 0.22 0.24 0.32 0.32 0.30 0.31 0.30 0.29 0.28 0.30 0.33 0.33 0.34 0.34 0.35 0.35 0.35 0.34 0.33 0.32 0.31 0.28 0.27 0.26 0.29 0.29 0.29 0.30 0.31 0.33 0.32
0.21 0.14 0.24 0.26 0.25 0.21 0.18 0.18 0.18 0.25 0.30 0.27 0.23 0.20 0.26 0.31 0.31 0.31 0.30 0.28 0.28 0.28 0.29 0.31 0.33 0.35 0.34 0.35 0.35 0.35 0.33 0.31 0.30 0.32 0.33 0.33 0.32 0.32 0.31 0.32 0.33 0.35 0.34 0.34
0.18 0.26 0.32 0.26 0.22 0.19 0.21 0.21 0.21 0.21 0.27 0.26 0.25 0.22 0.24 0.30 0.32 0.32 0.31 0.31 0.30 0.29 0.28 0.29 0.31 0.32 0.35 0.35 0.34 0.34 0.34 0.33 0.34 0.36 0.35 0.33 0.32 0.32 0.31 0.32 0.33 0.33 0.35 0.36
0.22 0.28 0.24 0.22 0.21 0.23 0.19 0.28 0.26 0.23 0.20 0.17 0.28 0.14 0.17 0.24 0.27 0.28 0.28 0.29 0.30 0.29 0.31 0.31 0.32 0.32 0.33 0.32 0.33 0.36 0.36 0.35 0.37 0.36 0.33 0.31 0.30 0.29 0.31 0.33 0.34 0.35 0.37 0.36
0.22 0.26 0.25 0.23 0.25 0.27 0.24 0.29 0.25 0.22 0.21 0.21 0.17 0.17 0.20 0.27 0.26 0.26 0.26 0.28 0.29 0.30 0.31 0.31 0.31 0.30 0.31 0.33 0.33 0.36 0.38 0.39 0.37 0.35 0.34 0.34 0.32 0.33 0.34 0.34 0.33 0.33 0.34 0.35
0.25 0.34 0.30 0.28 0.31 0.30 0.28 0.21 0.23 0.24 0.21 0.13 0.18 0.19 0.19 0.24 0.25 0.27 0.26 0.27 0.28 0.30 0.30 0.29 0.30 0.31 0.31 0.34 0.37 0.39 0.39 0.37 0.38 0.37 0.37 0.36 0.33 0.33 0.32 0.32 0.31 0.30 0.31 0.33
0.27 0.28 0.29 0.28 0.22 0.26 0.25 0.21 0.16 0.16 0.18 0.18 0.26 0.23 0.21 0.25 0.27 0.25 0.25 0.26 0.28 0.29 0.28 0.28 0.30 0.30 0.33 0.35 0.37 0.39 0.39 0.38 0.39 0.38 0.39 0.36 0.33 0.32 0.30 0.29 0.29 0.29 0.29 0.30
0.18 0.19 0.29 0.32 0.25 0.25 0.27 0.23 0.17 0.12 0.14 0.16 0.23 0.15 0.18 0.27 0.27 0.23 0.26 0.28 0.28 0.27 0.28 0.30 0.31 0.33 0.35 0.37 0.39 0.41 0.40 0.39 0.40 0.40 0.37 0.33 0.31 0.30 0.29 0.29 0.30 0.30 0.31 0.32
0.17 0.19 0.28 0.27 0.26 0.26 0.24 0.16 0.22 0.16 0.14 0.14 0.16 0.21 0.25 0.26 0.25 0.24 0.25 0.26 0.26 0.28 0.30 0.31 0.34 0.36 0.37 0.39 0.41 0.42 0.41 0.41 0.41 0.37 0.32 0.29 0.29 0.30 0.30 0.31 0.32 0.33 0.34 0.35
0.22 0.15 0.22 0.24 0.24 0.25 0.21 0.25 0.16 0.18 0.14 0.13 0.16 0.17 0.19 0.23 0.24 0.25 0.26 0.26 0.28 0.31 0.33 0.34 0.36 0.37 0.39 0.41 0.43 0.43 0.43 0.41 0.36 0.32 0.29 0.29 0.30 0.31 0.31 0.32 0.32 0.33 0.34 0.35
0.21 0.17 0.18 0.19 0.17 0.18 0.19 0.15 0.17 0.18 0.17 0.13 0.13 0.16 0.25 0.24 0.25 0.25 0.26 0.28 0.31 0.33 0.36 0.37 0.38 0.40 0.41 0.43 0.43 0.43 0.42 0.36 0.31 0.28 0.29 0.30 0.30 0.31 0.33 0.34 0.35 0.35 0.36 0.37
0.22 0.18 0.14 0.16 0.21 0.22 0.22 0.20 0.21 0.17 0.17 0.22 0.20 0.17 0.26 0.26 0.27 0.28 0.29 0.30 0.33 0.36 0.37 0.39 0.40 0.41 0.42 0.42 0.42 0.41 0.36 0.31 0.28 0.29 0.30 0.30 0.32 0.33 0.34 0.35 0.36 0.39 0.40 0.42
0.23 0.18 0.15 0.17 0.24 0.29 0.21 0.21 0.21 0.21 0.21 0.17 0.15 0.16 0.27 0.30 0.31 0.32 0.32 0.34 0.35 0.36 0.35 0.36 0.38 0.39 0.40 0.41 0.40 0.36 0.32 0.27 0.29 0.30 0.31 0.32 0.33 0.33 0.34 0.37 0.39 0.41 0.42 0.42
0.24 0.21 0.19 0.17 0.20 0.23 0.20 0.23 0.23 0.21 0.18 0.18 0.21 0.23 0.28 0.31 0.32 0.33 0.34 0.34 0.34 0.33 0.33 0.35 0.38 0.38 0.39 0.37 0.36 0.31 0.27 0.29 0.31 0.31 0.32 0.32 0.33 0.34 0.36 0.38 0.39 0.40 0.42 0.45
0.26 0.21 0.23 0.24 0.24 0.23 0.22 0.23 0.24 0.23 0.25 0.23 0.25 0.26 0.28 0.30 0.31 0.29 0.29 0.29 0.30 0.31 0.33 0.34 0.35 0.35 0.36 0.35 0.31 0.27 0.29 0.31 0.32 0.32 0.32 0.31 0.34 0.36 0.37 0.37 0.40 0.44 0.47 0.45
0.31 0.23 0.26 0.23 0.27 0.27 0.26 0.29 0.29 0.28 0.28 0.26 0.23 0.20 0.28 0.28 0.28 0.26 0.26 0.29 0.30 0.31 0.32 0.33 0.35 0.36 0.35 0.31 0.27 0.29 0.30 0.32 0.33 0.32 0.32 0.34 0.35 0.36 0.38 0.40 0.43 0.44 0.43 0.45
0.31 0.29 0.27 0.23 0.28 0.27 0.21 0.24 0.24 0.22 0.23 0.21 0.16 0.20 0.25 0.24 0.25 0.26 0.28 0.30 0.30 0.31 0.32 0.33 0.35 0.35 0.33 0.29 0.29 0.29 0.32 0.34 0.33 0.32 0.33 0.34 0.35 0.36 0.39 0.43 0.46 0.43 0.44 0.48
0.33 0.31 0.28 0.22 0.22 0.12 0.23 0.25 0.21 0.20 0.19 0.20 0.20 0.21 0.23 0.25 0.27 0.29 0.32 0.32 0.32 0.34 0.34 0.36 0.37 0.35 0.32 0.30 0.30 0.32 0.34 0.33 0.31 0.32 0.33 0.35 0.37 0.39 0.43 0.45 0.42 0.43 0.46 0.46
0.30 0.25 0.20 0.16 0.16 0.17 0.14 0.20 0.18 0.16 0.15 0.22 0.23 0.26 0.28 0.29 0.30 0.30 0.35 0.36 0.36 0.38 0.39 0.40 0.38 0.36 0.31 0.30 0.32 0.33 0.32 0.31 0.31 0.32 0.33 0.37 0.41 0.42 0.44 0.41 0.43 0.46 0.46 0.46
0.24 0.23 0.19 0.18 0.13 0.09 0.18 0.22 0.25 0.24 0.15 0.29 0.32 0.30 0.29 0.29 0.21 0.26 0.36 0.38 0.39 0.41 0.43 0.40 0.39 0.34 0.31 0.31 0.34 0.32 0.30 0.31 0.31 0.32 0.35 0.40 0.43 0.44 0.43 0.46 0.46 0.48 0.48 0.47
0.18 0.18 0.14 0.14 0.15 0.18 0.26 0.28 0.28 0.15 0.20 0.31 0.31 0.31 0.30 0.28 0.30 0.34 0.38 0.37 0.41 0.43 0.43 0.42 0.38 0.31 0.31 0.33 0.33 0.31 0.30 0.30 0.33 0.36 0.40 0.43 0.46 0.45 0.47 0.48 0.49 0.49 0.49 0.49
0.16 0.16 0.17 0.19 0.17 0.14 0.31 0.28 0.22 0.27 0.30 0.32 0.32 0.32 0.30 0.32 0.32 0.33 0.34 0.37 0.41 0.42 0.41 0.39 0.33 0.31 0.33 0.34 0.32 0.31 0.30 0.33 0.35 0.38 0.41 0.45 0.46 0.48 0.50 0.49 0.50 0.52 0.53 0.49
0.18 0.20 0.19 0.22 0.24 0.33 0.33 0.32 0.35 0.37 0.34 0.35 0.35 0.33 0.32 0.31 0.30 0.31 0.33 0.37 0.39 0.39 0.39 0.36 0.32 0.32 0.34 0.33 0.32 0.30 0.30 0.33 0.36 0.40 0.44 0.46 0.48 0.51 0.52 0.50 0.52 0.54 0.57 0.55
0.30 0.31 0.24 0.23 0.24 0.25 0.28 0.31 0.32 0.34 0.33 0.32 0.30 0.31 0.32 0.31 0.33 0.34 0.36 0.38 0.39 0.40 0.39 0.33 0.32 0.33 0.31 0.31 0.32 0.30 0.31 0.36 0.40 0.42 0.45 0.47 0.49 0.51 0.54 0.54 0.58 0.58 0.58 0.56
0.30 0.29 0.25 0.25 0.26 0.30 0.32 0.32 0.30 0.26 0.28 0.30 0.31 0.34 0.34 0.35 0.35 0.38 0.40 0.41 0.44 0.42 0.36 0.34 0.34 0.32 0.31 0.30 0.29 0.30 0.33 0.38 0.41 0.45 0.46 0.49 0.52 0.54 0.55 0.58 0.59 0.59 0.63 0.64
0.31 0.26 0.24 0.24 0.31 0.29 0.29 0.29 0.31 0.30 0.30 0.32 0.33 0.33 0.37 0.38 0.38 0.42 0.43 0.46 0.43 0.38 0.34 0.35 0.34 0.32 0.30 0.29 0.28 0.31 0.35 0.41 0.46 0.44 0.48 0.52 0.53 0.55 0.57 0.57 0.59 0.66 0.67 0.68

GFSCGP_prec_pwat_051.txt.gz
Precipitable_Water
0.49 0.36 0.24 0.28 0.26 0.23 0.21 0.19 0.16 0.18 0.26 0.25 0.23 0.24 0.28 0.31 0.31 0.31 0.33 0.33 0.31 0.29 0.31 0.31 0.33 0.34 0.35 0.36 0.36 0.36 0.34 0.33 0.31 0.28 0.28 0.28 0.27 0.29 0.30 0.31 0.30 0.31 0.34 0.33
0.29 0.18 0.21 0.25 0.26 0.24 0.22 0.18 0.15 0.23 0.28 0.27 0.26 0.23 0.24 0.27 0.29 0.32 0.33 0.33 0.30 0.30 0.30 0.31 0.33 0.34 0.35 0.35 0.35 0.35 0.34 0.34 0.31 0.30 0.32 0.32 0.32 0.32 0.33 0.34 0.34 0.36 0.35 0.35
0.21 0.24 0.31 0.28 0.26 0.22 0.20 0.19 0.20 0.22 0.26 0.28 0.24 0.18 0.23 0.29 0.31 0.33 0.35 0.36 0.32 0.30 0.29 0.30 0.31 0.32 0.34 0.35 0.35 0.34 0.35 0.35 0.33 0.34 0.35 0.34 0.34 0.34 0.34 0.34 0.34 0.35 0.36 0.37
0.22 0.27 0.24 0.22 0.20 0.21 0.17 0.26 0.25 0.24 0.22 0.15 0.24 0.12 0.18 0.22 0.26 0.31 0.34 0.33 0.31 0.30 0.30 0.30 0.31 0.32 0.34 0.35 0.35 0.36 0.36 0.35 0.37 0.38 0.36 0.34 0.34 0.34 0.35 0.35 0.36 0.36 0.36 0.35
0.19 0.23 0.23 0.22 0.24 0.27 0.23 0.28 0.25 0.22 0.18 0.18 0.16 0.15 0.16 0.24 0.25 0.30 0.33 0.31 0.31 0.31 0.30 0.31 0.32 0.32 0.33 0.35 0.34 0.35 0.37 0.38 0.40 0.40 0.39 0.38 0.38 0.38 0.37 0.35 0.34 0.34 0.34 0.34
0.24 0.31 0.28 0.27 0.30 0.30 0.30 0.24 0.20 0.22 0.21 0.14 0.18 0.18 0.17 0.24 0.27 0.30 0.32 0.29 0.30 0.31 0.32 0.33 0.33 0.33 0.33 0.35 0.35 0.37 0.39 0.41 0.42 0.42 0.42 0.41 0.39 0.37 0.33 0.31 0.30 0.30 0.31 0.31
0.25 0.27 0.32 0.32 0.24 0.27 0.24 0.18 0.13 0.14 0.16 0.15 0.25 0.21 0.21 0.28 0.29 0.30 0.28 0.27 0.29 0.32 0.31 0.32 0.31 0.32 0.34 0.34 0.36 0.39 0.41 0.42 0.44 0.44 0.43 0.42 0.38 0.34 0.30 0.29 0.28 0.28 0.29 0.30
0.18 0.18 0.27 0.33 0.26 0.23 0.26 0.23 0.16 0.12 0.14 0.15 0.20 0.14 0.18 0.28 0.32 0.30 0.30 0.30 0.31 0.31 0.32 0.32 0.32 0.34 0.35 0.37 0.39 0.41 0.43 0.44 0.44 0.43 0.41 0.38 0.34 0.30 0.29 0.29 0.30 0.30 0.30 0.31
0.17 0.18 0.29 0.29 0.28 0.26 0.23 0.19 0.23 0.16 0.14 0.12 0.14 0.20 0.26 0.29 0.27 0.26 0.27 0.31 0.31 0.31 0.32 0.32 0.34 0.37 0.37 0.39 0.41 0.42 0.43 0.43 0.42 0.40 0.36 0.33 0.31 0.29 0.30 0.31 0.31 0.31 0.33 0.34
0.21 0.15 0.23 0.24 0.24 0.24 0.23 0.25 0.16 0.17 0.11 0.12 0.16 0.18 0.18 0.22 0.24 0.26 0.27 0.28 0.29 0.31 0.33 0.35 0.38 0.39 0.40 0.41 0.41 0.42 0.42 0.40 0.38 0.35 0.33 0.31 0.29 0.31 0.32 0.32 0.31 0.33 0.34 0.35
0.22 0.18 0.17 0.20 0.17 0.17 0.19 0.17 0.17 0.17 0.17 0.13 0.12 0.15 0.25 0.25 0.25 0.26 0.28 0.29 0.32 0.34 0.36 0.38 0.39 0.40 0.40 0.40 0.41 0.41 0.40 0.37 0.35 0.34 0.31 0.29 0.30 0.31 0.32 0.33 0.34 0.35 0.36 0.37
0.22 0.18 0.15 0.16 0.21 0.23 0.24 0.20 0.21 0.17 0.16 0.20 0.20 0.18 0.26 0.26 0.27 0.29 0.30 0.32 0.35 0.38 0.38 0.39 0.38 0.38 0.38 0.39 0.40 0.39 0.36 0.35 0.34 0.32 0.30 0.30 0.31 0.33 0.34 0.34 0.35 0.36 0.36 0.37
0.23 0.16 0.14 0.17 0.22 0.27 0.22 0.21 0.21 0.20 0.21 0.17 0.15 0.17 0.26 0.30 0.31 0.33 0.34 0.35 0.35 0.34 0.32 0.32 0.33 0.35 0.37 0.37 0.37 0.36 0.36 0.35 0.32 0.30 0.30 0.30 0.32 0.33 0.33 0.34 0.35 0.36 0.35 0.36
0.24 0.20 0.18 0.16 0.19 0.22 0.20 0.22 0.24 0.22 0.19 0.19 0.21 0.23 0.29 0.31 0.31 0.31 0.29 0.28 0.27 0.28 0.29 0.31 0.33 0.34 0.35 0.36 0.36 0.36 0.35 0.32 0.30 0.30 0.31 0.32 0.33 0.34 0.35 0.35 0.35 0.36 0.38 0.39
0.25 0.20 0.23 0.23 0.24 0.25 0.24 0.24 0.26 0.25 0.25 0.22 0.24 0.24 0.25 0.24 0.24 0.25 0.26 0.28 0.28 0.29 0.30 0.32 0.33 0.34 0.35 0.36 0.36 0.36 0.33 0.30 0.31 0.32 0.33 0.33 0.34 0.34 0.33 0.34 0.36 0.38 0.40 0.43
0.30 0.23 0.26 0.24 0.28 0.27 0.25 0.27 0.26 0.25 0.25 0.24 0.21 0.18 0.24 0.26 0.26 0.26 0.27 0.28 0.28 0.30 0.30 0.32 0.34 0.36 0.36 0.36 0.36 0.35 0.31 0.31 0.33 0.33 0.32 0.32 0.33 0.33 0.33 0.36 0.38 0.40 0.44 0.43
0.32 0.30 0.28 0.24 0.29 0.27 0.19 0.22 0.22 0.23 0.23 0.22 0.17 0.20 0.23 0.22 0.24 0.25 0.27 0.27 0.28 0.30 0.31 0.34 0.35 0.36 0.37 0.38 0.38 0.32 0.32 0.33 0.33 0.32 0.32 0.32 0.33 0.33 0.36 0.39 0.41 0.42 0.42 0.45
0.33 0.31 0.27 0.21 0.21 0.11 0.21 0.24 0.22 0.20 0.22 0.22 0.21 0.22 0.24 0.26 0.28 0.30 0.32 0.32 0.32 0.32 0.34 0.35 0.37 0.38 0.40 0.40 0.35 0.33 0.33 0.32 0.33 0.32 0.32 0.33 0.33 0.35 0.39 0.41 0.42 0.44 0.46 0.46
0.29 0.25 0.18 0.14 0.14 0.15 0.14 0.19 0.20 0.18 0.17 0.23 0.22 0.25 0.28 0.29 0.30 0.29 0.32 0.32 0.31 0.33 0.34 0.33 0.36 0.39 0.39 0.37 0.33 0.32 0.31 0.33 0.33 0.32 0.32 0.32 0.35 0.37 0.40 0.43 0.44 0.47 0.47 0.47
0.25 0.23 0.18 0.16 0.12 0.08 0.16 0.23 0.26 0.24 0.14 0.27 0.28 0.28 0.27 0.28 0.21 0.23 0.31 0.33 0.34 0.35 0.35 0.37 0.40 0.40 0.37 0.32 0.32 0.31 0.32 0.33 0.32 0.31 0.31 0.34 0.38 0.40 0.44 0.46 0.48 0.49 0.49 0.52
0.17 0.18 0.14 0.15 0.14 0.16 0.26 0.29 0.28 0.15 0.18 0.31 0.31 0.30 0.30 0.27 0.30 0.32 0.34 0.33 0.36 0.37 0.38 0.40 0.39 0.37 0.35 0.33 0.32 0.32 0.33 0.31 0.31 0.31 0.33 0.37 0.41 0.46 0.48 0.49 0.52 0.51 0.55 0.59
0.16 0.14 0.15 0.18 0.16 0.14 0.32 0.29 0.23 0.28 0.32 0.32 0.32 0.32 0.31 0.32 0.30 0.31 0.34 0.35 0.37 0.38 0.39 0.40 0.40 0.38 0.33 0.33 0.34 0.32 0.30 0.30 0.31 0.33 0.35 0.40 0.46 0.49 0.51 0.52 0.53 0.57 0.58 0.57
0.17 0.22 0.21 0.24 0.24 0.35 0.35 0.34 0.35 0.35 0.32 0.32 0.32 0.33 0.32 0.29 0.29 0.33 0.34 0.36 0.38 0.39 0.41 0.42 0.40 0.32 0.33 0.34 0.34 0.29 0.29 0.31 0.31 0.34 0.38 0.44 0.49 0.51 0.54 0.55 0.55 0.57 0.58 0.56
0.30 0.32 0.26 0.26 0.29 0.32 0.34 0.35 0.35 0.35 0.34 0.33 0.30 0.29 0.30 0.29 0.32 0.33 0.35 0.37 0.39 0.40 0.41 0.39 0.34 0.31 0.33 0.34 0.31 0.30 0.30 0.31 0.32 0.36 0.42 0.48 0.49 0.53 0.56 0.58 0.59 0.57 0.56 0.55
0.29 0.30 0.27 0.27 0.31 0.33 0.33 0.33 0.34 0.32 0.28 0.26 0.27 0.29 0.30 0.31 0.31 0.34 0.36 0.38 0.40 0.41 0.39 0.36 0.32 0.34 0.33 0.32 0.30 0.30 0.30 0.31 0.33 0.40 0.46 0.49 0.53 0.55 0.56 0.58 0.58 0.57 0.61 0.62
0.32 0.27 0.25 0.23 0.31 0.30 0.29 0.33 0.33 0.28 0.28 0.29 0.29 0.28 0.32 0.33 0.32 0.35 0.37 0.41 0.42 0.38 0.36 0.34 0.35 0.34 0.32 0.31 0.28 0.29 0.30 0.31 0.37 0.43 0.47 0.51 0.54 0.55 0.56 0.56 0.56 0.62 0.64 0.65